Location: Unspecified
(43.0000°N, 0.0000°E)
Time: 13:01:09
(UTC+00:00)

PicSat - Pass Details

Date: 20 August 2020
Orbit: 482 x 496 km, 97.4° (Epoch: 21 September)

Event Time Altitude Azimuth Distance (km) Brightness Sun altitude
Exits shadow 21:06:01 19° 45° (NE) 1,244 ? -21.7°
Drops below altitude 10° 21:07:48 10° 18° (NNE) 1,700 ? -21.9°
Sets 21:10:13 0° 2° (N) 2,586 ? -22.2°
